Year,Month,Day,Hour,Minute,Value (Times are PST for temperature in C)
2012,08,07,00,00,16.50
2012,08,07,00,01,16.40
2012,08,07,00,02,16.40
2012,08,07,00,03,16.40
2012,08,07,00,04,16.40
2012,08,07,00,05,16.40
2012,08,07,00,06,16.40
2012,08,07,00,07,16.30
2012,08,07,00,08,16.30
2012,08,07,00,09,16.30
2012,08,07,00,10,16.30
2012,08,07,00,11,16.30
2012,08,07,00,12,16.30
2012,08,07,00,13,16.30
2012,08,07,00,14,16.30
2012,08,07,00,15,16.20
2012,08,07,00,16,16.20
2012,08,07,00,17,16.20
2012,08,07,00,18,16.20
2012,08,07,00,19,16.20
2012,08,07,00,20,16.20
2012,08,07,00,21,16.10
2012,08,07,00,22,16.10
2012,08,07,00,23,16.10
2012,08,07,00,24,16.10
2012,08,07,00,25,16.10
2012,08,07,00,26,16.10
2012,08,07,00,27,16.10
2012,08,07,00,28,16.10
2012,08,07,00,29,16.10
2012,08,07,00,30,16.10
2012,08,07,00,31,16.10
2012,08,07,00,32,16.10
2012,08,07,00,33,16.10
2012,08,07,00,34,16.10
2012,08,07,00,35,16.10
2012,08,07,00,36,16.10
2012,08,07,00,37,16.10
2012,08,07,00,38,16.00
2012,08,07,00,39,16.00
2012,08,07,00,40,16.00
2012,08,07,00,41,16.00
2012,08,07,00,42,16.00
2012,08,07,00,43,16.00
2012,08,07,00,44,15.90
2012,08,07,00,45,15.90
2012,08,07,00,46,15.90
2012,08,07,00,47,15.90
2012,08,07,00,48,15.90
2012,08,07,00,49,15.90
2012,08,07,00,50,15.90
2012,08,07,00,51,15.90
2012,08,07,00,52,15.90
2012,08,07,00,53,15.90
2012,08,07,00,54,15.90
2012,08,07,00,55,15.90
2012,08,07,00,56,15.90
2012,08,07,00,57,15.90
2012,08,07,00,58,15.90
2012,08,07,00,59,15.90
2012,08,07,01,00,15.90
2012,08,07,01,01,15.90
2012,08,07,01,02,15.90
2012,08,07,01,03,15.90
2012,08,07,01,04,15.80
2012,08,07,01,05,15.90
2012,08,07,01,06,15.90
2012,08,07,01,07,15.90
2012,08,07,01,08,15.90
2012,08,07,01,09,15.90
2012,08,07,01,10,15.90
2012,08,07,01,11,15.90
2012,08,07,01,12,15.90
2012,08,07,01,13,15.90
2012,08,07,01,14,15.90
2012,08,07,01,15,15.90
2012,08,07,01,16,15.90
2012,08,07,01,17,15.90
2012,08,07,01,18,15.90
2012,08,07,01,19,15.90
2012,08,07,01,20,15.90
2012,08,07,01,21,15.90
2012,08,07,01,22,15.80
2012,08,07,01,23,15.90
2012,08,07,01,24,15.80
2012,08,07,01,25,15.80
2012,08,07,01,26,15.80
2012,08,07,01,27,15.80
2012,08,07,01,28,15.80
2012,08,07,01,29,15.80
2012,08,07,01,30,15.80
2012,08,07,01,31,15.80
2012,08,07,01,32,15.80
2012,08,07,01,33,15.80
2012,08,07,01,34,15.80
2012,08,07,01,35,15.80
2012,08,07,01,36,15.80
2012,08,07,01,37,15.80
2012,08,07,01,38,15.70
2012,08,07,01,39,15.70
2012,08,07,01,40,15.70
2012,08,07,01,41,15.70
2012,08,07,01,42,15.70
2012,08,07,01,43,15.70
2012,08,07,01,44,15.70
2012,08,07,01,45,15.70
2012,08,07,01,46,15.60
2012,08,07,01,47,15.60
2012,08,07,01,48,15.60
2012,08,07,01,49,15.60
2012,08,07,01,50,15.60
2012,08,07,01,51,15.60
2012,08,07,01,52,15.60
2012,08,07,01,53,15.60
2012,08,07,01,54,15.60
2012,08,07,01,55,15.60
2012,08,07,01,56,15.60
2012,08,07,01,57,15.60
2012,08,07,01,58,15.60
2012,08,07,01,59,15.60
2012,08,07,02,00,15.60
2012,08,07,02,01,15.60
2012,08,07,02,02,15.60
2012,08,07,02,03,15.60
2012,08,07,02,04,15.60
2012,08,07,02,05,15.60
2012,08,07,02,06,15.60
2012,08,07,02,07,15.60
2012,08,07,02,08,15.60
2012,08,07,02,09,15.60
2012,08,07,02,10,15.50
2012,08,07,02,11,15.50
2012,08,07,02,12,15.50
2012,08,07,02,13,15.50
2012,08,07,02,14,15.50
2012,08,07,02,15,15.50
2012,08,07,02,16,15.50
2012,08,07,02,17,15.50
2012,08,07,02,18,15.50
2012,08,07,02,19,15.40
2012,08,07,02,20,15.40
2012,08,07,02,21,15.40
2012,08,07,02,22,15.40
2012,08,07,02,23,15.40
2012,08,07,02,24,15.40
2012,08,07,02,25,15.40
2012,08,07,02,26,15.40
2012,08,07,02,27,15.40
2012,08,07,02,28,15.40
2012,08,07,02,29,15.40
2012,08,07,02,30,15.40
2012,08,07,02,31,15.40
2012,08,07,02,32,15.40
2012,08,07,02,33,15.40
2012,08,07,02,34,15.40
2012,08,07,02,35,15.40
2012,08,07,02,36,15.40
2012,08,07,02,37,15.40
2012,08,07,02,38,15.40
2012,08,07,02,39,15.40
2012,08,07,02,40,15.40
2012,08,07,02,41,15.40
2012,08,07,02,42,15.40
2012,08,07,02,43,15.40
2012,08,07,02,44,15.40
2012,08,07,02,45,15.40
2012,08,07,02,46,15.40
2012,08,07,02,47,15.40
2012,08,07,02,48,15.40
2012,08,07,02,49,15.40
2012,08,07,02,50,15.50
2012,08,07,02,51,15.50
2012,08,07,02,52,15.50
2012,08,07,02,53,15.50
2012,08,07,02,54,15.50
2012,08,07,02,55,15.50
2012,08,07,02,56,15.50
2012,08,07,02,57,15.50
2012,08,07,02,58,15.50
2012,08,07,02,59,15.50
2012,08,07,03,00,15.50
2012,08,07,03,01,15.50
2012,08,07,03,02,15.50
2012,08,07,03,03,15.50
2012,08,07,03,06,15.60
2012,08,07,03,07,15.60
2012,08,07,03,08,15.60
2012,08,07,03,09,15.60
2012,08,07,03,10,15.60
2012,08,07,03,11,15.60
2012,08,07,03,12,15.60
2012,08,07,03,13,15.60
2012,08,07,03,14,15.60
2012,08,07,03,15,15.70
2012,08,07,03,16,15.70
2012,08,07,03,17,15.70
2012,08,07,03,18,15.70
2012,08,07,03,19,15.70
2012,08,07,03,20,15.70
2012,08,07,03,21,15.70
2012,08,07,03,22,15.70
2012,08,07,03,23,15.70
2012,08,07,03,24,15.80
2012,08,07,03,25,15.80
2012,08,07,03,26,15.80
2012,08,07,03,27,15.80
2012,08,07,03,28,15.80
2012,08,07,03,29,15.80
2012,08,07,03,30,15.80
2012,08,07,03,31,15.80
2012,08,07,03,32,15.80
2012,08,07,03,33,15.80
2012,08,07,03,34,15.80
2012,08,07,03,35,15.80
2012,08,07,03,36,15.90
2012,08,07,03,37,15.90
2012,08,07,03,38,15.90
2012,08,07,03,39,15.90
2012,08,07,03,40,15.90
2012,08,07,03,41,15.90
2012,08,07,03,42,15.90
2012,08,07,03,43,15.90
2012,08,07,03,44,15.90
2012,08,07,03,45,15.90
2012,08,07,03,46,15.90
2012,08,07,03,47,15.90
2012,08,07,03,48,15.90
2012,08,07,03,49,15.90
2012,08,07,03,50,15.90
2012,08,07,03,51,15.90
2012,08,07,03,52,16.00
2012,08,07,03,53,16.00
2012,08,07,03,54,16.00
2012,08,07,03,55,16.00
2012,08,07,03,56,16.00
2012,08,07,03,57,16.00
2012,08,07,03,58,16.00
2012,08,07,03,59,16.00
2012,08,07,04,00,16.00
2012,08,07,04,01,16.10
2012,08,07,04,02,16.10
2012,08,07,04,03,16.10
2012,08,07,04,04,16.10
2012,08,07,04,05,16.10
2012,08,07,04,06,16.10
2012,08,07,04,07,16.10
2012,08,07,04,08,16.10
2012,08,07,04,09,16.10
2012,08,07,04,10,16.10
2012,08,07,04,11,16.10
2012,08,07,04,12,16.10
2012,08,07,04,13,16.10
2012,08,07,04,14,16.10
2012,08,07,04,15,16.10
2012,08,07,04,16,16.10
2012,08,07,04,17,16.10
2012,08,07,04,18,16.10
2012,08,07,04,19,16.10
2012,08,07,04,20,16.10
2012,08,07,04,21,16.10
2012,08,07,04,22,16.10
2012,08,07,04,23,16.20
2012,08,07,04,24,16.20
2012,08,07,04,25,16.20
2012,08,07,04,26,16.20
2012,08,07,04,27,16.20
2012,08,07,04,28,16.20
2012,08,07,04,29,16.20
2012,08,07,04,30,16.20
2012,08,07,04,31,16.20
2012,08,07,04,32,16.20
2012,08,07,04,33,16.20
2012,08,07,04,34,16.20
2012,08,07,04,35,16.20
2012,08,07,04,36,16.20
2012,08,07,04,37,16.20
2012,08,07,04,38,16.20
2012,08,07,04,39,16.20
2012,08,07,04,40,16.20
2012,08,07,04,41,16.20
2012,08,07,04,42,16.20
2012,08,07,04,43,16.20
2012,08,07,04,44,16.20
2012,08,07,04,45,16.20
2012,08,07,04,46,16.20
2012,08,07,04,47,16.20
2012,08,07,04,48,16.20
2012,08,07,04,49,16.20
2012,08,07,04,50,16.20
2012,08,07,04,51,16.30
2012,08,07,04,52,16.30
2012,08,07,04,53,16.30
2012,08,07,04,54,16.30
2012,08,07,04,55,16.30
2012,08,07,04,56,16.30
2012,08,07,04,57,16.30
2012,08,07,04,58,16.30
2012,08,07,04,59,16.30
2012,08,07,05,00,16.30
2012,08,07,05,01,16.30
2012,08,07,05,02,16.30
2012,08,07,05,03,16.30
2012,08,07,05,04,16.30
2012,08,07,05,05,16.30
2012,08,07,05,06,16.30
2012,08,07,05,07,16.30
2012,08,07,05,08,16.30
2012,08,07,05,09,16.30
2012,08,07,05,10,16.30
2012,08,07,05,11,16.30
2012,08,07,05,12,16.30
2012,08,07,05,13,16.30
2012,08,07,05,14,16.30
2012,08,07,05,15,16.30
2012,08,07,05,16,16.30
2012,08,07,05,17,16.30
2012,08,07,05,18,16.30
2012,08,07,05,19,16.30
2012,08,07,05,20,16.30
2012,08,07,05,21,16.30
2012,08,07,05,22,16.30
2012,08,07,05,23,16.30
2012,08,07,05,24,16.30
2012,08,07,05,25,16.30
2012,08,07,05,26,16.30
2012,08,07,05,27,16.30
2012,08,07,05,28,16.30
2012,08,07,05,29,16.30
2012,08,07,05,30,16.30
2012,08,07,05,31,16.30
2012,08,07,05,32,16.30
2012,08,07,05,33,16.30
2012,08,07,05,34,16.30
2012,08,07,05,35,16.30
2012,08,07,05,36,16.30
2012,08,07,05,37,16.30
2012,08,07,05,38,16.30
2012,08,07,05,39,16.30
2012,08,07,05,40,16.30
2012,08,07,05,41,16.30
2012,08,07,05,42,16.30
2012,08,07,05,43,16.30
2012,08,07,05,44,16.40
2012,08,07,05,45,16.30
2012,08,07,05,46,16.40
2012,08,07,05,47,16.40
2012,08,07,05,48,16.40
2012,08,07,05,49,16.40
2012,08,07,05,50,16.40
2012,08,07,05,51,16.40
2012,08,07,05,52,16.40
2012,08,07,05,53,16.40
2012,08,07,05,54,16.30
2012,08,07,05,55,16.30
2012,08,07,05,56,16.30
2012,08,07,05,57,16.30
2012,08,07,05,58,16.30
2012,08,07,05,59,16.30
2012,08,07,06,00,16.40
2012,08,07,06,01,16.30
2012,08,07,06,02,16.30
2012,08,07,06,03,16.30
2012,08,07,06,04,16.30
2012,08,07,06,05,16.30
2012,08,07,06,06,16.30
2012,08,07,06,07,16.30
2012,08,07,06,08,16.30
2012,08,07,06,09,16.30
2012,08,07,06,10,16.30
2012,08,07,06,11,16.30
2012,08,07,06,12,16.30
2012,08,07,06,13,16.30
2012,08,07,06,14,16.30
2012,08,07,06,15,16.40
2012,08,07,06,16,16.40
2012,08,07,06,17,16.40
2012,08,07,06,18,16.40
2012,08,07,06,19,16.40
2012,08,07,06,20,16.40
2012,08,07,06,21,16.40
2012,08,07,06,22,16.40
2012,08,07,06,23,16.40
2012,08,07,06,24,16.40
2012,08,07,06,25,16.40
2012,08,07,06,26,16.40
2012,08,07,06,27,16.40
2012,08,07,06,28,16.40
2012,08,07,06,29,16.40
2012,08,07,06,30,16.40
2012,08,07,06,31,16.40
2012,08,07,06,32,16.40
2012,08,07,06,33,16.40
2012,08,07,06,34,16.40
2012,08,07,06,35,16.40
2012,08,07,06,36,16.40
2012,08,07,06,37,16.40
2012,08,07,06,38,16.40
2012,08,07,06,39,16.40
2012,08,07,06,40,16.40
2012,08,07,06,41,16.40
2012,08,07,06,42,16.40
2012,08,07,06,43,16.40
2012,08,07,06,44,16.40
2012,08,07,06,45,16.40
2012,08,07,06,46,16.40
2012,08,07,06,47,16.40
2012,08,07,06,48,16.40
2012,08,07,06,49,16.40
2012,08,07,06,50,16.40
2012,08,07,06,51,16.40
2012,08,07,06,52,16.40
2012,08,07,06,53,16.40
2012,08,07,06,54,16.40
2012,08,07,06,55,16.40
2012,08,07,06,56,16.40
2012,08,07,06,57,16.40
2012,08,07,06,58,16.40
2012,08,07,06,59,16.40
2012,08,07,07,00,16.40
2012,08,07,07,01,16.40
2012,08,07,07,02,16.40
2012,08,07,07,03,16.40
2012,08,07,07,04,16.40
2012,08,07,07,05,16.40
2012,08,07,07,06,16.40
2012,08,07,07,07,16.40
2012,08,07,07,08,16.40
2012,08,07,07,09,16.40
2012,08,07,07,10,16.40
2012,08,07,07,11,16.40
2012,08,07,07,12,16.40
2012,08,07,07,13,16.40
2012,08,07,07,14,16.40
2012,08,07,07,15,16.40
2012,08,07,07,16,16.40
2012,08,07,07,17,16.40
2012,08,07,07,18,16.40
2012,08,07,07,19,16.40
2012,08,07,07,20,16.40
2012,08,07,07,21,16.40
2012,08,07,07,22,16.50
2012,08,07,07,23,16.50
2012,08,07,07,24,16.50
2012,08,07,07,25,16.50
2012,08,07,07,26,16.50
2012,08,07,07,27,16.50
2012,08,07,07,28,16.50
2012,08,07,07,29,16.50
2012,08,07,07,30,16.50
2012,08,07,07,31,16.60
2012,08,07,07,32,16.60
2012,08,07,07,33,16.60
2012,08,07,07,34,16.60
2012,08,07,07,35,16.60
2012,08,07,07,36,16.60
2012,08,07,07,37,16.60
2012,08,07,07,38,16.60
2012,08,07,07,39,16.60
2012,08,07,07,40,16.60
2012,08,07,07,41,16.60
2012,08,07,07,42,16.60
2012,08,07,07,43,16.60
2012,08,07,07,44,16.60
2012,08,07,07,45,16.60
2012,08,07,07,46,16.60
2012,08,07,07,47,16.60
2012,08,07,07,48,16.60
2012,08,07,07,49,16.60
2012,08,07,07,50,16.60
2012,08,07,07,51,16.60
2012,08,07,07,52,16.60
2012,08,07,07,53,16.70
2012,08,07,07,54,16.60
2012,08,07,07,55,16.60
2012,08,07,07,56,16.60
2012,08,07,07,57,16.60
2012,08,07,07,58,16.60
2012,08,07,07,59,16.60
2012,08,07,08,00,16.60
2012,08,07,08,01,16.60
2012,08,07,08,02,16.60
2012,08,07,08,03,16.60
2012,08,07,08,04,16.60
2012,08,07,08,05,16.60
2012,08,07,08,06,16.60
2012,08,07,08,07,16.60
2012,08,07,08,08,16.60
2012,08,07,08,09,16.60
2012,08,07,08,10,16.60
2012,08,07,08,11,16.60
2012,08,07,08,12,16.60
2012,08,07,08,13,16.60
2012,08,07,08,14,16.60
2012,08,07,08,15,16.70
2012,08,07,08,16,16.70
2012,08,07,08,17,16.70
2012,08,07,08,18,16.70
2012,08,07,08,19,16.70
2012,08,07,08,20,16.70
2012,08,07,08,21,16.70
2012,08,07,08,22,16.80
2012,08,07,08,23,16.80
2012,08,07,08,24,16.80
2012,08,07,08,25,16.80
2012,08,07,08,26,16.80
2012,08,07,08,27,16.80
2012,08,07,08,28,16.80
2012,08,07,08,29,16.80
2012,08,07,08,30,16.80
2012,08,07,08,31,16.80
2012,08,07,08,32,16.80
2012,08,07,08,33,16.80
2012,08,07,08,34,16.80
2012,08,07,08,35,16.80
2012,08,07,08,36,16.80
2012,08,07,08,37,16.80
2012,08,07,08,38,16.80
2012,08,07,08,39,16.80
2012,08,07,08,40,16.80
2012,08,07,08,41,16.80
2012,08,07,08,42,16.80
2012,08,07,08,43,16.80
2012,08,07,08,44,16.90
2012,08,07,08,45,16.90
2012,08,07,08,46,16.90
2012,08,07,08,47,16.90
2012,08,07,08,48,16.90
2012,08,07,08,49,16.90
2012,08,07,08,50,16.90
2012,08,07,08,51,16.90
2012,08,07,08,52,16.90
2012,08,07,08,53,16.90
2012,08,07,08,54,16.90
2012,08,07,08,55,16.90
2012,08,07,08,56,16.90
2012,08,07,08,57,16.90
2012,08,07,08,58,16.90
2012,08,07,08,59,16.90
2012,08,07,09,00,16.90
2012,08,07,09,01,16.90
2012,08,07,09,02,17.00
2012,08,07,09,03,17.00
2012,08,07,09,04,17.00
2012,08,07,09,05,17.00
2012,08,07,09,06,17.00
2012,08,07,09,07,17.00
2012,08,07,09,08,17.10
2012,08,07,09,09,17.10
2012,08,07,09,10,17.10
2012,08,07,09,11,17.10
2012,08,07,09,12,17.10
2012,08,07,09,13,17.10
2012,08,07,09,14,17.10
2012,08,07,09,15,17.10
2012,08,07,09,16,17.10
2012,08,07,09,17,17.10
2012,08,07,09,18,17.10
2012,08,07,09,19,17.10
2012,08,07,09,20,17.10
2012,08,07,09,21,17.10
2012,08,07,09,22,17.10
2012,08,07,09,23,17.10
2012,08,07,09,24,17.10
2012,08,07,09,25,17.10
2012,08,07,09,26,17.10
2012,08,07,09,27,17.10
2012,08,07,09,28,17.10
2012,08,07,09,29,17.10
2012,08,07,09,30,17.20
2012,08,07,09,31,17.20
2012,08,07,09,32,17.20
2012,08,07,09,33,17.20
2012,08,07,09,34,17.20
2012,08,07,09,35,17.20
2012,08,07,09,36,17.20
2012,08,07,09,37,17.20
2012,08,07,09,38,17.20
2012,08,07,09,39,17.20
2012,08,07,09,40,17.20
2012,08,07,09,41,17.20
2012,08,07,09,42,17.20
2012,08,07,09,43,17.20
2012,08,07,09,44,17.20
2012,08,07,09,45,17.20
2012,08,07,09,46,17.20
2012,08,07,09,47,17.20
2012,08,07,09,48,17.20
2012,08,07,09,49,17.20
2012,08,07,09,50,17.20
2012,08,07,09,51,17.20
2012,08,07,09,52,17.20
2012,08,07,09,53,17.20
2012,08,07,09,54,17.20
2012,08,07,09,55,17.20
2012,08,07,09,56,17.30
2012,08,07,09,57,17.30
2012,08,07,09,58,17.30
2012,08,07,09,59,17.30
2012,08,07,10,00,17.30
2012,08,07,10,01,17.30
2012,08,07,10,02,17.30
2012,08,07,10,03,17.30
2012,08,07,10,04,17.30
2012,08,07,10,05,17.30
2012,08,07,10,06,17.30
2012,08,07,10,07,17.30
2012,08,07,10,08,17.30
2012,08,07,10,09,17.30
2012,08,07,10,10,17.30
2012,08,07,10,11,17.40
2012,08,07,10,12,17.40
2012,08,07,10,13,17.40
2012,08,07,10,14,17.40
2012,08,07,10,15,17.40
2012,08,07,10,16,17.40
2012,08,07,10,17,17.40
2012,08,07,10,18,17.40
2012,08,07,10,19,17.50
2012,08,07,10,20,17.50
2012,08,07,10,21,17.50
2012,08,07,10,22,17.50
2012,08,07,10,23,17.50
2012,08,07,10,24,17.50
2012,08,07,10,25,17.50
2012,08,07,10,26,17.50
2012,08,07,10,27,17.40
2012,08,07,10,28,17.40
2012,08,07,10,29,17.40
2012,08,07,10,30,17.40
2012,08,07,10,31,17.50
2012,08,07,10,32,17.50
2012,08,07,10,33,17.50
2012,08,07,10,34,17.60
2012,08,07,10,35,17.60
2012,08,07,10,36,17.60
2012,08,07,10,37,17.60
2012,08,07,10,38,17.70
2012,08,07,10,39,17.70
2012,08,07,10,40,17.70
2012,08,07,10,41,17.70
2012,08,07,10,42,17.70
2012,08,07,10,43,17.70
2012,08,07,10,44,17.80
2012,08,07,10,45,17.80
2012,08,07,10,46,17.80
2012,08,07,10,47,17.80
2012,08,07,10,48,17.80
2012,08,07,10,49,17.80
2012,08,07,10,50,17.90
2012,08,07,10,51,17.80
2012,08,07,10,52,17.80
2012,08,07,10,53,17.80
2012,08,07,10,54,17.80
2012,08,07,10,55,17.80
2012,08,07,10,56,17.80
2012,08,07,10,57,17.80
2012,08,07,10,58,17.80
2012,08,07,10,59,17.80
2012,08,07,11,00,17.80
2012,08,07,11,01,17.90
2012,08,07,11,02,17.90
2012,08,07,11,03,17.90
2012,08,07,11,04,17.90
2012,08,07,11,05,17.90
2012,08,07,11,06,17.90
2012,08,07,11,07,17.90
2012,08,07,11,08,18.00
2012,08,07,11,09,18.00
2012,08,07,11,10,18.00
2012,08,07,11,11,18.00
2012,08,07,11,12,18.00
2012,08,07,11,13,18.00
2012,08,07,11,14,18.00
2012,08,07,11,15,18.10
2012,08,07,11,16,18.10
2012,08,07,11,17,18.10
2012,08,07,11,18,18.10
2012,08,07,11,19,18.20
2012,08,07,11,20,18.20
2012,08,07,11,21,18.20
2012,08,07,11,22,18.30
2012,08,07,11,23,18.40
2012,08,07,11,24,18.40
2012,08,07,11,25,18.40
2012,08,07,11,26,18.40
2012,08,07,11,27,18.40
2012,08,07,11,28,18.40
2012,08,07,11,29,18.40
2012,08,07,11,30,18.40
2012,08,07,11,31,18.50
2012,08,07,11,32,18.50
2012,08,07,11,33,18.50
2012,08,07,11,34,18.60
2012,08,07,11,35,18.60
2012,08,07,11,36,18.60
2012,08,07,11,37,18.70
2012,08,07,11,38,18.70
2012,08,07,11,39,18.70
2012,08,07,11,40,18.70
2012,08,07,11,41,18.70
2012,08,07,11,42,18.80
2012,08,07,11,43,18.80
2012,08,07,11,44,18.80
2012,08,07,11,45,18.70
2012,08,07,11,46,18.70
2012,08,07,11,47,18.80
2012,08,07,11,48,18.80
2012,08,07,11,49,18.80
2012,08,07,11,50,18.80
2012,08,07,11,51,18.80
2012,08,07,11,52,18.80
2012,08,07,11,53,18.80
2012,08,07,11,54,18.80
2012,08,07,11,55,18.80
2012,08,07,11,56,18.80
2012,08,07,11,57,18.90
2012,08,07,11,58,18.90
2012,08,07,11,59,18.90
2012,08,07,12,00,18.90
2012,08,07,12,01,18.90
2012,08,07,12,02,19.00
2012,08,07,12,03,19.00
2012,08,07,12,04,19.10
2012,08,07,12,05,19.10
2012,08,07,12,06,19.10
2012,08,07,12,07,19.10
2012,08,07,12,08,19.10
2012,08,07,12,09,19.10
2012,08,07,12,10,19.10
2012,08,07,12,11,19.20
2012,08,07,12,12,19.20
2012,08,07,12,13,19.20
2012,08,07,12,14,19.30
2012,08,07,12,15,19.30
2012,08,07,12,16,19.40
2012,08,07,12,17,19.40
2012,08,07,12,18,19.40
2012,08,07,12,19,19.50
2012,08,07,12,20,19.60
2012,08,07,12,21,19.60
2012,08,07,12,22,19.70
2012,08,07,12,23,19.80
2012,08,07,12,24,19.80
2012,08,07,12,25,19.90
2012,08,07,12,26,20.00
2012,08,07,12,27,20.10
2012,08,07,12,28,20.10
2012,08,07,12,29,20.10
2012,08,07,12,30,20.10
2012,08,07,12,31,20.20
2012,08,07,12,32,20.20
2012,08,07,12,33,20.30
2012,08,07,12,34,20.40
2012,08,07,12,35,20.50
2012,08,07,12,36,20.60
2012,08,07,12,37,20.70
2012,08,07,12,38,20.70
2012,08,07,12,39,20.70
2012,08,07,12,40,20.60
2012,08,07,12,41,20.50
2012,08,07,12,42,20.50
2012,08,07,12,43,20.50
2012,08,07,12,44,20.60
2012,08,07,12,45,20.70
2012,08,07,12,46,20.70
2012,08,07,12,47,20.80
2012,08,07,12,48,20.80
2012,08,07,12,49,20.80
2012,08,07,12,50,20.90
2012,08,07,12,51,21.00
2012,08,07,12,52,21.10
2012,08,07,12,53,21.10
2012,08,07,12,54,21.00
2012,08,07,12,55,21.00
2012,08,07,12,56,21.00
2012,08,07,12,57,21.00
2012,08,07,12,58,21.10
2012,08,07,12,59,21.10
2012,08,07,13,00,21.10
2012,08,07,13,01,21.10
2012,08,07,13,02,21.10
2012,08,07,13,03,21.00
2012,08,07,13,04,21.00
2012,08,07,13,05,21.00
2012,08,07,13,06,21.00
2012,08,07,13,07,21.00
2012,08,07,13,08,21.00
2012,08,07,13,09,21.00
2012,08,07,13,10,21.10
2012,08,07,13,11,21.10
2012,08,07,13,12,21.20
2012,08,07,13,13,21.20
2012,08,07,13,14,21.30
2012,08,07,13,15,21.30
2012,08,07,13,16,21.30
2012,08,07,13,17,21.30
2012,08,07,13,18,21.30
2012,08,07,13,19,21.40
2012,08,07,13,20,21.40
2012,08,07,13,21,21.50
2012,08,07,13,22,21.60
2012,08,07,13,23,21.70
2012,08,07,13,24,21.70
2012,08,07,13,25,21.80
2012,08,07,13,26,21.80
2012,08,07,13,27,22.00
2012,08,07,13,28,22.00
2012,08,07,13,29,22.00
2012,08,07,13,30,22.00
2012,08,07,13,31,22.10
2012,08,07,13,32,22.10
2012,08,07,13,33,22.20
2012,08,07,13,34,22.20
2012,08,07,13,35,22.30
2012,08,07,13,36,22.30
2012,08,07,13,37,22.40
2012,08,07,13,38,22.50
2012,08,07,13,39,22.50
2012,08,07,13,40,22.60
2012,08,07,13,41,22.50
2012,08,07,13,42,22.60
2012,08,07,13,43,22.60
2012,08,07,13,44,22.60
2012,08,07,13,45,22.60
2012,08,07,13,46,22.70
2012,08,07,13,47,22.70
2012,08,07,13,48,22.80
2012,08,07,13,49,22.90
2012,08,07,13,50,22.90
2012,08,07,13,51,23.00
2012,08,07,13,52,23.10
2012,08,07,13,53,23.10
2012,08,07,13,54,23.10
2012,08,07,13,55,23.10
2012,08,07,13,56,23.20
2012,08,07,13,57,23.20
2012,08,07,13,58,23.30
2012,08,07,13,59,23.30
2012,08,07,14,00,23.30
2012,08,07,14,01,23.30
2012,08,07,14,02,23.40
2012,08,07,14,03,23.40
2012,08,07,14,04,23.40
2012,08,07,14,05,23.50
2012,08,07,14,06,23.50
2012,08,07,14,07,23.60
2012,08,07,14,08,23.60
2012,08,07,14,09,23.70
2012,08,07,14,10,23.70
2012,08,07,14,11,23.80
2012,08,07,14,12,23.80
2012,08,07,14,13,23.80
2012,08,07,14,14,23.80
2012,08,07,14,15,23.80
2012,08,07,14,16,23.70
2012,08,07,14,17,23.70
2012,08,07,14,18,23.80
2012,08,07,14,19,23.90
2012,08,07,14,20,23.90
2012,08,07,14,21,23.90
2012,08,07,14,22,23.90
2012,08,07,14,23,23.90
2012,08,07,14,24,23.80
2012,08,07,14,25,23.80
2012,08,07,14,26,23.70
2012,08,07,14,27,23.70
2012,08,07,14,28,23.80
2012,08,07,14,29,24.00
2012,08,07,14,30,24.20
2012,08,07,14,31,24.30
2012,08,07,14,32,24.40
2012,08,07,14,33,24.40
2012,08,07,14,34,24.40
2012,08,07,14,35,24.40
2012,08,07,14,36,24.30
2012,08,07,14,37,24.20
2012,08,07,14,38,24.10
2012,08,07,14,39,24.10
2012,08,07,14,40,24.10
2012,08,07,14,41,24.10
2012,08,07,14,42,24.10
2012,08,07,14,43,24.10
2012,08,07,14,44,24.10
2012,08,07,14,45,24.10
2012,08,07,14,46,24.20
2012,08,07,14,47,24.20
2012,08,07,14,48,24.30
2012,08,07,14,49,24.30
2012,08,07,14,50,24.40
2012,08,07,14,51,24.40
2012,08,07,14,52,24.40
2012,08,07,14,53,24.30
2012,08,07,14,54,24.40
2012,08,07,14,55,24.50
2012,08,07,14,56,24.60
2012,08,07,14,57,24.60
2012,08,07,14,58,24.70
2012,08,07,14,59,24.70
2012,08,07,15,00,24.80
2012,08,07,15,01,24.80
2012,08,07,15,02,24.90
2012,08,07,15,03,24.90
2012,08,07,15,04,25.00
2012,08,07,15,05,25.10
2012,08,07,15,06,25.20
2012,08,07,15,07,25.30
2012,08,07,15,08,25.40
2012,08,07,15,09,25.40
2012,08,07,15,10,25.50
2012,08,07,15,11,25.50
2012,08,07,15,12,25.50
2012,08,07,15,13,25.40
2012,08,07,15,14,25.40
2012,08,07,15,15,25.40
2012,08,07,15,16,25.40
2012,08,07,15,17,25.40
2012,08,07,15,18,25.40
2012,08,07,15,19,25.30
2012,08,07,15,20,25.30
2012,08,07,15,21,25.30
2012,08,07,15,22,25.30
2012,08,07,15,23,25.40
2012,08,07,15,24,25.40
2012,08,07,15,25,25.40
2012,08,07,15,26,25.30
2012,08,07,15,27,25.30
2012,08,07,15,28,25.30
2012,08,07,15,29,25.30
2012,08,07,15,30,25.30
2012,08,07,15,31,25.40
2012,08,07,15,32,25.40
2012,08,07,15,33,25.30
2012,08,07,15,34,25.40
2012,08,07,15,35,25.40
2012,08,07,15,36,25.50
2012,08,07,15,37,25.60
2012,08,07,15,38,25.60
2012,08,07,15,39,25.60
2012,08,07,15,40,25.60
2012,08,07,15,41,25.60
2012,08,07,15,42,25.50
2012,08,07,15,43,25.50
2012,08,07,15,44,25.50
2012,08,07,15,45,25.40
2012,08,07,15,46,25.30
2012,08,07,15,47,25.20
2012,08,07,15,48,25.20
2012,08,07,15,49,25.20
2012,08,07,15,50,25.20
2012,08,07,15,51,25.30
2012,08,07,15,52,25.20
2012,08,07,15,53,25.30
2012,08,07,15,54,25.30
2012,08,07,15,55,25.30
2012,08,07,15,56,25.30
2012,08,07,15,57,25.30
2012,08,07,15,58,25.20
2012,08,07,15,59,25.20
2012,08,07,16,00,25.20
2012,08,07,16,01,25.10
2012,08,07,16,02,25.10
2012,08,07,16,03,25.10
2012,08,07,16,04,25.20
2012,08,07,16,05,25.20
2012,08,07,16,06,25.10
2012,08,07,16,07,25.10
2012,08,07,16,08,25.10
2012,08,07,16,09,25.10
2012,08,07,16,10,25.10
2012,08,07,16,11,25.10
2012,08,07,16,12,25.20
2012,08,07,16,13,25.20
2012,08,07,16,14,25.20
2012,08,07,16,15,25.20
2012,08,07,16,16,25.20
2012,08,07,16,17,25.30
2012,08,07,16,18,25.30
2012,08,07,16,19,25.30
2012,08,07,16,20,25.30
2012,08,07,16,21,25.30
2012,08,07,16,22,25.30
2012,08,07,16,23,25.30
2012,08,07,16,24,25.40
2012,08,07,16,25,25.40
2012,08,07,16,26,25.30
2012,08,07,16,27,25.30
2012,08,07,16,28,25.30
2012,08,07,16,29,25.30
2012,08,07,16,30,25.30
2012,08,07,16,31,25.30
2012,08,07,16,32,25.40
2012,08,07,16,33,25.40
2012,08,07,16,34,25.40
2012,08,07,16,35,25.50
2012,08,07,16,36,25.50
2012,08,07,16,37,25.40
2012,08,07,16,38,25.40
2012,08,07,16,39,25.30
2012,08,07,16,40,25.30
2012,08,07,16,41,25.30
2012,08,07,16,42,25.40
2012,08,07,16,43,25.50
2012,08,07,16,44,25.60
2012,08,07,16,45,25.70
2012,08,07,16,46,25.70
2012,08,07,16,47,25.60
2012,08,07,16,48,25.60
2012,08,07,16,49,25.50
2012,08,07,16,50,25.50
2012,08,07,16,51,25.50
2012,08,07,16,52,25.50
2012,08,07,16,53,25.50
2012,08,07,16,54,25.60
2012,08,07,16,55,25.70
2012,08,07,16,56,25.70
2012,08,07,16,57,25.70
2012,08,07,16,58,25.80
2012,08,07,16,59,25.80
2012,08,07,17,00,25.90
2012,08,07,17,01,25.90
2012,08,07,17,02,25.90
2012,08,07,17,03,25.90
2012,08,07,17,04,25.90
2012,08,07,17,05,26.00
2012,08,07,17,06,26.00
2012,08,07,17,07,26.00
2012,08,07,17,08,26.10
2012,08,07,17,09,26.10
2012,08,07,17,10,26.10
2012,08,07,17,11,26.10
2012,08,07,17,12,25.90
2012,08,07,17,13,25.70
2012,08,07,17,14,25.60
2012,08,07,17,15,25.40
2012,08,07,17,16,25.30
2012,08,07,17,17,25.20
2012,08,07,17,18,25.10
2012,08,07,17,19,24.90
2012,08,07,17,20,24.80
2012,08,07,17,21,24.80